• In Uzbekistan
  • List of Countries
  • For 7 days
  • Water Temperature
  • Satellite Maps
  • Weather Map
  • Weather Widgets
  • user-avatar
    Login

    Hourly Weather Kanggye

    Today, 20 September, Thursday

    Time Temperature Precipitation Wind Pressure Humidity
    00:00 +15°C° 0 mm 1 mps 728 mmHg 72%
    01:00 +15°C° 0 mm 1 mps 728 mmHg 72%
    02:00 +15°C° 0 mm 1 mps 728 mmHg 73%
    03:00 +14°C° 0 mm 1 mps 728 mmHg 75%
    04:00 +14°C° 0 mm 1 mps 728 mmHg 77%
    05:00 +13°C° 0 mm 1 mps 728 mmHg 79%
    06:00 +16°C° 0 mm 1 mps 728 mmHg 72%
    07:00 +19°C° 0 mm 1 mps 728 mmHg 65%
    08:00 +22°C° 0 mm 1 mps 728 mmHg 56%
    09:00 +24°C° 0 mm 1 mps 728 mmHg 51%
    10:00 +26°C° 0 mm 1 mps 728 mmHg 46%
    11:00 +28°C° 0 mm 1 mps 728 mmHg 41%
    12:00 +27°C° 0 mm 1 mps 728 mmHg 42%
    13:00 +27°C° 0 mm 1 mps 728 mmHg 42%
    14:00 +27°C° 0 mm 2 mps 727 mmHg 44%
    15:00 +25°C° 0 mm 1 mps 727 mmHg 53%
    16:00 +24°C° 0 mm 1 mps 727 mmHg 63%
    17:00 +22°C° 0 mm 1 mps 727 mmHg 72%
    18:00 +21°C° 0 mm 1 mps 727 mmHg 75%
    19:00 +19°C° 0 mm 1 mps 728 mmHg 79%
    20:00 +19°C° 0 mm 1 mps 728 mmHg 81%
    21:00 +18°C° 0 mm 1 mps 728 mmHg 83%
    22:00 +18°C° 0 mm 1 mps 728 mmHg 85%
    23:00 +16°C° 0 mm 1 mps 728 mmHg 87%

    Tomorrow, 21 September, Friday

    Time Temperature Precipitation Wind Pressure Humidity
    00:00 +16°C° 0 mm 1 mps 728 mmHg 89%
    01:00 +15°C° 0 mm 1 mps 728 mmHg 90%
    02:00 +15°C° 0 mm 1 mps 728 mmHg 91%
    03:00 +14°C° 0 mm 1 mps 728 mmHg 91%
    04:00 +14°C° 0 mm 1 mps 727 mmHg 91%
    05:00 +14°C° 0 mm 1 mps 727 mmHg 90%
    06:00 +15°C° 0.1 mm 1 mps 727 mmHg 88%
    07:00 +16°C° 0.1 mm 1 mps 727 mmHg 85%
    08:00 +18°C° 0.1 mm 1 mps 727 mmHg 82%
    09:00 +18°C° 0.4 mm 1 mps 726 mmHg 85%
    10:00 +18°C° 0.4 mm 1 mps 726 mmHg 88%
    11:00 +18°C° 0.4 mm 1 mps 726 mmHg 91%
    12:00 +18°C° 0.4 mm 1 mps 726 mmHg 92%
    13:00 +18°C° 0.4 mm 1 mps 726 mmHg 92%
    14:00 +18°C° 0.4 mm 1 mps 725 mmHg 93%
    15:00 +18°C° 0.2 mm 1 mps 725 mmHg 93%
    16:00 +18°C° 0.2 mm 1 mps 725 mmHg 94%
    17:00 +18°C° 0.2 mm 1 mps 725 mmHg 95%
    18:00 +16°C° 0.5 mm 1 mps 725 mmHg 96%
    19:00 +15°C° 0.5 mm 1 mps 725 mmHg 97%
    20:00 +15°C° 0.5 mm 1 mps 725 mmHg 98%
    21:00 +15°C° 0.6 mm 1 mps 725 mmHg 98%
    22:00 +14°C° 0.6 mm 1 mps 725 mmHg 98%
    23:00 +14°C° 0.6 mm 1 mps 725 mmHg 98%

    Day after tomorrow, 22 September, Saturday

    Time Temperature Precipitation Wind Pressure Humidity
    00:00 +14°C° 0.1 mm 1 mps 725 mmHg 98%
    01:00 +14°C° 0.1 mm 1 mps 725 mmHg 97%
    02:00 +13°C° 0.1 mm 1 mps 725 mmHg 97%
    03:00 +13°C° 0 mm 1 mps 725 mmHg 97%
    04:00 +12°C° 0 mm 1 mps 725 mmHg 97%
    05:00 +12°C° 0 mm 1 mps 725 mmHg 97%
    06:00 +13°C° 0 mm 1 mps 726 mmHg 93%
    07:00 +14°C° 0 mm 1 mps 726 mmHg 89%
    08:00 +16°C° 0 mm 2 mps 726 mmHg 85%
    09:00 +17°C° 0 mm 2 mps 726 mmHg 73%
    10:00 +18°C° 0 mm 3 mps 726 mmHg 61%
    11:00 +19°C° 0 mm 4 mps 726 mmHg 49%
    12:00 +19°C° 0 mm 4 mps 726 mmHg 47%
    13:00 +20°C° 0 mm 4 mps 726 mmHg 46%
    14:00 +20°C° 0 mm 4 mps 726 mmHg 45%
    15:00 +18°C° 0 mm 3 mps 726 mmHg 52%
    16:00 +17°C° 0 mm 3 mps 726 mmHg 59%
    17:00 +15°C° 0 mm 2 mps 726 mmHg 66%
    18:00 +14°C° 0 mm 2 mps 726 mmHg 72%
    19:00 +12°C° 0 mm 1 mps 726 mmHg 78%
    20:00 +11°C° 0 mm 1 mps 727 mmHg 84%
    21:00 +11°C° 0 mm 1 mps 727 mmHg 84%
    22:00 +11°C° 0 mm 1 mps 727 mmHg 85%
    23:00 +11°C° 0 mm 1 mps 727 mmHg 85%

    23 September, Sunday

    Time Temperature Precipitation Wind Pressure Humidity
    00:00 +10°C° 0.1 mm 1 mps 727 mmHg 88%
    01:00 +10°C° 0.1 mm 1 mps 727 mmHg 90%
    02:00 +9°C° 0.1 mm 2 mps 726 mmHg 92%
    03:00 +9°C° 0.1 mm 2 mps 726 mmHg 92%
    04:00 +8°C° 0.1 mm 2 mps 726 mmHg 93%
    05:00 +8°C° 0.1 mm 2 mps 726 mmHg 94%
    06:00 +10°C° 0 mm 2 mps 726 mmHg 85%
    07:00 +12°C° 0 mm 3 mps 726 mmHg 76%
    08:00 +14°C° 0 mm 4 mps 726 mmHg 67%
    09:00 +15°C° 0.1 mm 4 mps 726 mmHg 61%
    10:00 +16°C° 0.1 mm 5 mps 726 mmHg 55%
    11:00 +17°C° 0.1 mm 6 mps 725 mmHg 50%
    12:00 +17°C° 0.2 mm 5 mps 725 mmHg 53%
    13:00 +16°C° 0.2 mm 5 mps 725 mmHg 56%
    14:00 +16°C° 0.2 mm 5 mps 725 mmHg 60%
    15:00 +15°C° 0.2 mm 4 mps 725 mmHg 66%
    16:00 +14°C° 0.2 mm 3 mps 725 mmHg 73%
    17:00 +14°C° 0.2 mm 2 mps 726 mmHg 80%
    18:00 +13°C° 0.1 mm 2 mps 726 mmHg 84%
    19:00 +11°C° 0.1 mm 1 mps 727 mmHg 88%
    20:00 +10°C° 0.1 mm 1 mps 728 mmHg 93%
    21:00 +9°C° 0 mm 1 mps 728 mmHg 93%
    22:00 +9°C° 0 mm 1 mps 729 mmHg 93%
    23:00 +9°C° 0 mm 1 mps 729 mmHg 93%

    24 September, Monday

    Time Temperature Precipitation Wind Pressure Humidity
    00:00 +8°C° 0 mm 1 mps 729 mmHg 94%
    01:00 +8°C° 0 mm 1 mps 729 mmHg 94%
    02:00 +8°C° 0 mm 1 mps 729 mmHg 94%
    03:00 +7°C° 0 mm 1 mps 729 mmHg 94%
    04:00 +7°C° 0 mm 1 mps 729 mmHg 94%
    05:00 +6°C° 0 mm 0 mps 729 mmHg 94%
    06:00 +8°C° 0 mm 0 mps 730 mmHg 87%
    07:00 +10°C° 0 mm 0 mps 730 mmHg 81%
    08:00 +12°C° 0 mm 0 mps 730 mmHg 74%
    09:00 +15°C° 0 mm 1 mps 730 mmHg 67%
    10:00 +16°C° 0 mm 1 mps 730 mmHg 59%
    11:00 +19°C° 0 mm 1 mps 730 mmHg 51%
    12:00 +18°C° 0 mm 2 mps 729 mmHg 50%
    13:00 +18°C° 0 mm 2 mps 729 mmHg 49%
    14:00 +18°C° 0 mm 2 mps 729 mmHg 49%
    15:00 +16°C° 0 mm 2 mps 729 mmHg 57%
    16:00 +15°C° 0 mm 1 mps 729 mmHg 65%
    17:00 +14°C° 0 mm 1 mps 730 mmHg 73%
    18:00 +12°C° 0 mm 1 mps 730 mmHg 78%
    19:00 +11°C° 0 mm 1 mps 731 mmHg 84%
    20:00 +9°C° 0 mm 0 mps 731 mmHg 89%
    21:00 +8°C° 0 mm 0 mps 731 mmHg 91%
    22:00 +8°C° 0 mm 0 mps 731 mmHg 92%
    23:00 +8°C° 0 mm 0 mps 732 mmHg 94%

    25 September, Tuesday

    Time Temperature Precipitation Wind Pressure Humidity
    00:00 +7°C° 0 mm 0 mps 732 mmHg 95%
    01:00 +8°C° 0 mm 1 mps 732 mmHg 95%
    02:00 +8°C° 0 mm 1 mps 732 mmHg 96%
    03:00 +7°C° 0 mm 1 mps 732 mmHg 96%
    04:00 +7°C° 0 mm 1 mps 732 mmHg 96%
    05:00 +7°C° 0 mm 1 mps 732 mmHg 95%
    06:00 +9°C° 0 mm 1 mps 732 mmHg 87%
    07:00 +12°C° 0 mm 1 mps 732 mmHg 78%
    08:00 +14°C° 0 mm 1 mps 733 mmHg 70%
    09:00 +16°C° 0 mm 1 mps 732 mmHg 62%
    10:00 +18°C° 0 mm 1 mps 732 mmHg 54%
    11:00 +19°C° 0 mm 2 mps 732 mmHg 46%
    12:00 +19°C° 0 mm 2 mps 732 mmHg 45%
    13:00 +19°C° 0 mm 2 mps 731 mmHg 45%
    14:00 +19°C° 0 mm 2 mps 731 mmHg 44%
    15:00 +18°C° 0 mm 2 mps 731 mmHg 53%
    16:00 +16°C° 0 mm 1 mps 731 mmHg 61%
    17:00 +14°C° 0 mm 1 mps 732 mmHg 70%
    18:00 +13°C° 0 mm 1 mps 732 mmHg 75%
    19:00 +11°C° 0 mm 1 mps 733 mmHg 81%
    20:00 +10°C° 0 mm 1 mps 733 mmHg 86%
    21:00 +9°C° 0 mm 1 mps 733 mmHg 88%
    22:00 +9°C° 0 mm 1 mps 733 mmHg 89%
    23:00 +8°C° 0 mm 1 mps 733 mmHg 90%
    Show more